Lid_Strength_Index
4 4 4 4 4 4 4 4 4 4 4 4 5 4 4 4 4 5 5 5 4 4 5 5 4 4 4 8 7 4 -0 1 4 7 9 9 10 10 11 11 12 12 11 10 8 8 8
4 4 4 4 4 4 4 4 4 4 4 4 4 4 5 5 4 5 5 5 5 5 4 5 5 4 6 12 7 5 5 4 6 8 9 9 10 9 10 11 12 10 10 9 8 8 8
4 4 4 4 4 4 4 4 4 4 4 4 4 4 4 5 5 5 5 5 5 5 5 5 5 5 8 10 7 6 5 7 7 7 9 8 8 9 9 11 9 10 11 9 9 9 9
4 4 4 4 4 4 4 4 4 4 4 4 4 4 4 5 5 5 5 4 4 5 5 5 5 6 11 5 5 5 6 6 5 6 7 6 7 8 10 9 10 12 12 13 10 9 9
4 4 4 4 4 4 4 4 4 4 4 4 3 3 4 4 4 4 4 3 3 3 4 4 7 8 11 4 6 4 5 7 6 6 6 5 7 9 9 13 15 14 17 13 11 9 10
4 4 4 4 4 4 4 4 3 3 3 3 2 2 2 3 4 4 4 4 4 4 5 5 5 9 8 9 6 5 5 5 8 7 8 9 10 12 13 14 17 16 15 14 13 11 10
3 3 4 4 4 4 4 4 3 2 2 2 2 2 2 2 1 2 3 6 9 9 9 10 9 9 8 6 3 6 5 7 8 9 12 10 13 14 12 12 13 13 14 14 11 10 11
3 3 3 4 4 4 3 3 2 2 2 2 2 2 2 2 3 3 5 8 8 7 12 8 9 9 6 5 8 6 5 8 10 12 11 12 14 11 11 11 12 13 14 14 11 9 10
3 3 3 3 3 3 2 1 1 1 1 1 1 1 1 2 2 4 6 6 5 6 11 10 9 10 9 6 9 8 6 9 10 12 12 13 12 9 11 12 13 13 14 13 12 11 10
3 3 3 3 3 2 2 1 1 0 1 1 0 1 1 1 5 5 7 3 4 4 16 15 11 9 7 6 10 5 6 8 10 11 11 12 10 11 12 12 12 15 11 11 11 13 15
3 3 3 3 3 2 2 2 2 1 1 0 1 1 1 2 7 7 5 4 4 6 22 13 11 6 7 9 9 8 5 8 11 11 11 13 12 12 12 11 11 13 10 11 11 13 14
2 3 3 3 2 2 2 2 2 2 1 1 1 1 1 2 5 6 4 4 4 14 21 14 10 9 9 8 9 8 7 7 8 10 11 12 9 10 11 10 10 9 11 11 12 13 17
1 2 2 3 2 2 2 2 1 1 1 1 1 1 2 2 7 5 5 6 14 18 12 14 11 10 10 10 10 10 10 11 12 14 14 12 12 11 9 11 10 11 14 18 18 18 19
2 1 1 1 2 2 2 2 1 1 1 1 1 1 2 2 4 5 6 10 17 14 14 10 11 11 13 10 11 11 11 12 11 12 14 15 16 12 10 11 13 13 13 17 20 20 18
0 1 1 1 1 1 1 1 1 1 1 1 1 2 3 2 3 3 8 15 16 13 11 11 10 12 13 10 10 11 12 13 11 11 13 15 15 11 10 10 10 13 15 11 16 17 19
0 0 0 1 1 1 1 0 0 0 0 0 2 3 4 1 1 4 11 15 13 10 9 10 12 10 13 12 11 12 12 10 11 9 9 11 15 11 10 9 10 11 10 14 15 21 22
-0 -0 -0 0 0 1 1 0 0 -0 -0 -1 2 6 3 0 1 7 14 14 11 9 8 10 11 11 11 11 11 12 12 10 9 9 9 10 12 13 10 12 13 12 13 12 13 15 19
0 0 0 -0 0 0 0 0 -0 -0 -1 1 4 10 2 1 10 10 12 12 9 9 8 10 9 10 11 10 11 12 12 11 8 8 11 9 12 14 13 10 9 10 12 12 16 18 16
1 1 0 0 0 0 0 -0 -0 -1 -0 2 6 7 2 3 12 12 10 10 11 10 10 10 11 10 9 11 12 11 10 8 7 9 11 10 12 16 14 12 10 12 11 11 12 13 17
2 2 2 1 1 0 0 0 0 0 0 2 9 11 7 6 8 10 12 12 13 10 10 9 10 10 10 11 9 11 11 8 8 8 8 8 11 13 16 14 11 13 11 10 11 16 16
3 3 3 2 2 2 2 2 1 1 1 3 9 11 9 12 10 10 10 11 13 13 10 10 11 12 12 13 11 12 11 9 8 8 9 9 13 12 11 11 10 11 11 11 13 12 14
3 3 3 3 3 2 2 2 2 1 1 5 12 10 8 10 9 10 10 12 12 12 11 12 12 10 11 13 11 13 10 10 11 9 10 9 13 12 13 11 10 12 11 12 12 11 11
3 3 3 3 3 3 3 3 2 2 2 6 6 7 7 9 10 11 12 11 11 10 10 10 10 11 11 10 8 8 8 8 9 10 11 12 13 14 16 12 13 16 13 11 11 11 11
2 2 2 2 2 2 3 3 3 3 2 4 5 6 9 12 11 11 10 10 11 11 12 9 10 11 9 7 7 8 9 8 8 9 8 12 13 13 16 14 21 13 9 9 10 10 9
1 1 1 1 0 1 1 2 3 3 2 5 4 6 9 12 10 10 10 11 10 10 11 10 9 8 7 9 12 13 13 13 11 9 9 9 12 16 18 17 14 12 10 10 12 12 8
1 1 1 1 1 1 1 1 1 1 2 4 4 4 6 10 11 9 10 10 12 12 11 10 7 7 8 11 13 16 17 15 15 13 9 10 10 14 16 18 20 13 9 7 8 15 8
1 1 1 1 1 1 1 1 1 1 1 3 4 3 6 10 9 8 10 11 9 11 12 10 9 10 8 13 14 15 15 12 16 16 15 14 14 16 16 18 15 10 8 7 15 14 8
1 1 1 1 1 1 1 1 1 0 0 2 3 2 6 9 9 7 7 9 9 10 13 10 10 11 12 14 13 15 16 13 13 12 14 14 16 17 15 17 19 8 9 12 9 8 7
1 1 1 0 0 1 1 1 1 1 1 1 4 3 2 5 6 5 5 5 6 6 7 8 9 9 10 12 13 13 15 16 13 16 10 15 12 14 13 14 8 8 8 7 6 7 7